Huntsville Madison, AL

4:58 PM CDT on May 26, 2018 (GMT -0500)
Huntsville Madison

Weather History for KMDQ - February, 2013

Change the Weather History Date:

Sunday, February 24, 2013

  Actual Average (KHSV) Record (KHSV)
Temperature  
Mean Temperature 42 °F -  
Max Temperature 55 °F 57 °F 81 °F (2017)
Min Temperature 30 °F 36 °F 14 °F (1967)
Degree Days  
Heating Degree Days 22    
Moisture  
Dew Point 27 °F    
Average Humidity 61    
Maximum Humidity 100    
Minimum Humidity 23    
Precipitation  
Precipitation 0.00 in - - ()
Sea Level Pressure  
Sea Level Pressure 30.03 in    
Wind  
Wind Speed 2 mph (NNE)    
Max Wind Speed 9 mph    
Max Gust Speed -    
Visibility 9 miles    
Events      
Averages and records for this station are not official NWS values.
T = Trace of Precipitation, MM = Missing Value Source: NWS Daily Summary

Daily Weather History Graph

Daily Weather History Graph

Search for Another Location

Airport or City:

Astronomy

Feb. 24, 2013 Rise Set
Actual Time 6:21 AM CST 5:37 PM CST
Civil Twilight 5:55 AM CST 6:03 PM CST
Nautical Twilight 5:26 AM CST 6:32 PM CST
Astronomical Twilight 4:57 AM CST 7:01 PM CST
Moon 4:48 PM CST (2/24) 5:17 AM CST (2/24)
Length of Visible Light 12h 07m
Length of Day
11h 16m
Waxing Gibbous, 99% of the Moon is Illuminated
Feb 24
Waxing Gibbous
Feb 25
Full
Mar 4
Last Quarter
Mar 11
New
Mar 19
First Quarter

Hourly Weather History & Observations

Time (CST) Temp. Windchill Dew Point Humidity Pressure Visibility Wind Dir Wind Speed Gust Speed Precip Events Conditions
12:15 AM 35.6 °F - 32.0 °F 87% 29.99 in 10.0 mi Calm Calm - N/A   Clear
12:35 AM 35.6 °F - 32.0 °F 87% 29.98 in 10.0 mi Calm Calm - N/A   Clear
12:55 AM 33.8 °F - 32.0 °F 93% 29.98 in 10.0 mi Calm Calm - N/A   Clear
1:15 AM 33.8 °F - 32.0 °F 93% 29.98 in 10.0 mi Calm Calm - N/A   Clear
1:35 AM 32.0 °F - 32.0 °F 100% 29.99 in 10.0 mi Calm Calm - N/A   Clear
1:55 AM 32.0 °F - 30.2 °F 93% 29.99 in 10.0 mi Calm Calm - N/A   Clear
2:15 AM 32.0 °F - 30.2 °F 93% 29.98 in 5.0 mi Calm Calm - N/A   Clear
2:35 AM 32.0 °F - 30.2 °F 93% 29.98 in 4.0 mi Calm Calm - N/A   Clear
2:55 AM 32.0 °F - 30.2 °F 93% 29.98 in 10.0 mi Calm Calm - N/A   Clear
3:15 AM 32.0 °F - 30.2 °F 93% 29.99 in 10.0 mi Calm Calm - N/A   Clear
3:35 AM 32.0 °F - 28.4 °F 87% 29.99 in 10.0 mi Calm Calm - N/A   Clear
3:55 AM 32.0 °F - 28.4 °F 87% 30.00 in 10.0 mi Calm Calm - N/A   Clear
4:15 AM 30.2 °F - 28.4 °F 93% 30.00 in 7.0 mi Calm Calm - N/A   Clear
4:35 AM 32.0 °F - 28.4 °F 87% 30.01 in 7.0 mi Calm Calm - N/A   Clear
4:55 AM 32.0 °F - 28.4 °F 87% 30.01 in 5.0 mi Calm Calm - N/A   Clear
5:15 AM 30.2 °F - 28.4 °F 93% 30.02 in 7.0 mi Calm Calm - N/A   Clear
5:35 AM 32.0 °F - 28.4 °F 87% 30.02 in 5.0 mi Calm Calm - N/A   Clear
5:55 AM 32.0 °F - 28.4 °F 87% 30.03 in 10.0 mi Calm Calm - N/A   Clear
6:15 AM 30.2 °F - 26.6 °F 86% 30.03 in 7.0 mi Calm Calm - N/A   Clear
6:35 AM 30.2 °F 24.3 °F 26.6 °F 86% 30.03 in 5.0 mi North 5.8 mph - N/A   Clear
6:55 AM 32.0 °F 27.5 °F 28.4 °F 87% 30.04 in 7.0 mi North 4.6 mph - N/A   Clear
7:15 AM 32.0 °F - 28.4 °F 87% 30.05 in 7.0 mi Calm Calm - N/A   Clear
7:35 AM 33.8 °F - 28.4 °F 81% 30.07 in 7.0 mi Calm Calm - N/A   Clear
7:55 AM 35.6 °F 32.8 °F 28.4 °F 75% 30.08 in 10.0 mi North 3.5 mph - N/A   Clear
8:15 AM 37.4 °F 32.1 °F 28.4 °F 70% 30.08 in 10.0 mi NE 6.9 mph - N/A   Clear
8:35 AM 37.4 °F 32.1 °F 26.6 °F 65% 30.08 in 10.0 mi NE 6.9 mph - N/A   Clear
8:55 AM 39.2 °F 33.0 °F 26.6 °F 61% 30.08 in 10.0 mi NE 9.2 mph - N/A   Clear
9:15 AM 41.0 °F 37.1 °F 26.6 °F 57% 30.09 in 10.0 mi NE 5.8 mph - N/A   Clear
9:35 AM 42.8 °F 39.3 °F 26.6 °F 53% 30.09 in 10.0 mi NE 5.8 mph - N/A   Clear
9:55 AM 42.8 °F - 26.6 °F 53% 30.10 in 10.0 mi Calm Calm - N/A   Clear
10:15 AM 44.6 °F - 26.6 °F 49% 30.09 in 10.0 mi Calm Calm - N/A   Clear
10:35 AM 46.4 °F 44.3 °F 26.6 °F 46% 30.10 in 10.0 mi North 4.6 mph - N/A   Clear
10:55 AM 46.4 °F 45.2 °F 26.6 °F 46% 30.09 in 10.0 mi North 3.5 mph - N/A   Clear
11:15 AM 46.4 °F 43.5 °F 26.6 °F 46% 30.09 in 10.0 mi North 5.8 mph - N/A   Clear
11:35 AM 50.0 °F - 26.6 °F 40% 30.09 in 10.0 mi NE 6.9 mph - N/A   Clear
11:55 AM 50.0 °F - 24.8 °F 37% 30.08 in 10.0 mi East 5.8 mph - N/A   Clear
12:15 PM 50.0 °F - 24.8 °F 37% 30.07 in 10.0 mi NE 4.6 mph - N/A   Clear
12:35 PM 51.8 °F - 24.8 °F 35% 30.07 in 10.0 mi Calm Calm - N/A   Clear
12:55 PM 51.8 °F - 24.8 °F 35% 30.06 in 10.0 mi Calm Calm - N/A   Clear
1:15 PM 53.6 °F - 24.8 °F 33% 30.06 in 10.0 mi North 4.6 mph - N/A   Clear
1:35 PM 53.6 °F - 26.6 °F 35% 30.04 in 10.0 mi NNE 5.8 mph - N/A   Clear
1:55 PM 53.6 °F - 23.0 °F 30% 30.04 in 10.0 mi Calm Calm - N/A   Clear
2:15 PM 55.4 °F - 23.0 °F 29% 30.03 in 10.0 mi NNW 4.6 mph - N/A   Clear
2:35 PM 55.4 °F - 21.2 °F 26% 30.03 in 10.0 mi NE 5.8 mph - N/A   Clear
2:55 PM 55.4 °F - 19.4 °F 25% 30.02 in 10.0 mi NE 4.6 mph - N/A   Clear
3:15 PM 55.4 °F - 19.4 °F 25% 30.02 in 10.0 mi North 4.6 mph - N/A   Clear
3:35 PM 55.4 °F - 19.4 °F 25% 30.02 in 10.0 mi NNE 8.1 mph - N/A   Clear
3:55 PM 55.4 °F - 17.6 °F 23% 30.02 in 10.0 mi NNE 5.8 mph - N/A   Clear
4:15 PM 55.4 °F - 19.4 °F 25% 30.01 in 10.0 mi NNE 6.9 mph - N/A   Clear
4:35 PM 55.4 °F - 19.4 °F 25% 30.02 in 10.0 mi NE 8.1 mph - N/A   Clear
4:55 PM 55.4 °F - 19.4 °F 25% 30.02 in 10.0 mi NE 4.6 mph - N/A   Clear
5:15 PM 53.6 °F - 21.2 °F 28% 30.02 in 10.0 mi NE 3.5 mph - N/A   Clear
5:35 PM 53.6 °F - 23.0 °F 30% 30.02 in 10.0 mi NNE 3.5 mph - N/A   Clear
5:55 PM 50.0 °F - 24.8 °F 37% 30.02 in 10.0 mi Calm Calm - N/A   Clear
6:15 PM 44.6 °F - 30.2 °F 57% 30.02 in 10.0 mi Calm Calm - N/A   Clear
6:35 PM 44.6 °F - 30.2 °F 57% 30.02 in 10.0 mi Calm Calm - N/A   Clear
6:55 PM 42.8 °F - 30.2 °F 61% 30.02 in 10.0 mi Calm Calm - N/A   Clear
7:15 PM 42.8 °F - 30.2 °F 61% 30.02 in 10.0 mi Calm Calm - N/A   Clear
7:35 PM 42.8 °F - 28.4 °F 57% 30.02 in 10.0 mi Calm Calm - N/A   Clear
7:55 PM 41.0 °F - 28.4 °F 61% 30.02 in 10.0 mi Calm Calm - N/A   Clear
8:15 PM 41.0 °F - 32.0 °F 70% 30.01 in 10.0 mi Calm Calm - N/A   Clear
8:35 PM 42.8 °F - 26.6 °F 53% 30.02 in 10.0 mi Calm Calm - N/A   Clear
8:55 PM 42.8 °F - 23.0 °F 46% 30.01 in 10.0 mi Calm Calm - N/A   Clear
9:15 PM 42.8 °F 41.1 °F 23.0 °F 46% 30.01 in 10.0 mi NNE 3.5 mph - N/A   Clear
9:35 PM 42.8 °F 41.1 °F 24.8 °F 49% 30.01 in 10.0 mi NNE 3.5 mph - N/A   Clear
9:55 PM 41.0 °F - 24.8 °F 53% 30.00 in 10.0 mi Calm Calm - N/A   Clear
10:15 PM 41.0 °F - 26.6 °F 57% 30.00 in 10.0 mi Calm Calm - N/A   Clear
10:35 PM 39.2 °F - 26.6 °F 61% 29.99 in 10.0 mi Calm Calm - N/A   Clear
10:55 PM 35.6 °F - 28.4 °F 75% 29.97 in 10.0 mi Calm Calm - N/A   Clear
11:15 PM 37.4 °F - 26.6 °F 65% 29.98 in 10.0 mi Calm Calm - N/A   Clear
11:35 PM 35.6 °F - 26.6 °F 70% 29.97 in 10.0 mi Calm Calm - N/A   Clear
11:55 PM 35.6 °F - 28.4 °F 75% 29.97 in 10.0 mi Calm Calm - N/A   Clear